TimeEDT,TemperatureF,Dew PointF,Humidity,Sea Level PressureIn,VisibilityMPH,Wind Direction,Wind SpeedMPH,Gust SpeedMPH,PrecipitationIn,Events,Conditions,WindDirDegrees,DateUTC
12:54 AM,55.0,41.0,59,29.83,10.0,NW,15.0,-,N/A,,Clear,320,2013-09-23 04:54:00
1:54 AM,54.0,39.9,59,29.84,10.0,NNW,15.0,21.9,N/A,,Clear,330,2013-09-23 05:54:00
2:54 AM,52.0,41.0,66,29.85,10.0,WNW,12.7,-,N/A,,Partly Cloudy,300,2013-09-23 06:54:00
3:54 AM,51.1,39.9,66,29.86,10.0,WNW,10.4,-,N/A,,Partly Cloudy,300,2013-09-23 07:54:00
4:54 AM,50.0,39.0,66,29.86,10.0,WNW,13.8,20.7,N/A,,Clear,290,2013-09-23 08:54:00
5:54 AM,50.0,39.0,66,29.88,10.0,WNW,12.7,-,N/A,,Clear,300,2013-09-23 09:54:00
6:54 AM,50.0,39.0,66,29.90,10.0,WNW,11.5,-,N/A,,Clear,300,2013-09-23 10:54:00
7:54 AM,51.1,37.9,61,29.92,10.0,WNW,10.4,19.6,N/A,,Clear,300,2013-09-23 11:54:00
8:54 AM,53.1,37.9,57,29.92,10.0,WNW,11.5,17.3,N/A,,Partly Cloudy,300,2013-09-23 12:54:00
9:54 AM,55.0,37.0,51,29.92,10.0,NW,15.0,21.9,N/A,,Partly Cloudy,320,2013-09-23 13:54:00
10:54 AM,57.0,37.9,49,29.91,10.0,WNW,11.5,18.4,N/A,,Partly Cloudy,300,2013-09-23 14:54:00
11:54 AM,59.0,37.9,46,29.91,10.0,WNW,12.7,-,N/A,,Partly Cloudy,300,2013-09-23 15:54:00
12:54 PM,62.1,39.0,43,29.91,10.0,WNW,10.4,-,N/A,,Partly Cloudy,300,2013-09-23 16:54:00
1:54 PM,63.0,41.0,45,29.90,10.0,WNW,12.7,19.6,N/A,,Partly Cloudy,300,2013-09-23 17:54:00
2:54 PM,64.0,39.9,41,29.90,10.0,WNW,12.7,20.7,N/A,,Partly Cloudy,300,2013-09-23 18:54:00
3:54 PM,64.9,41.0,42,29.90,10.0,NNW,12.7,-,N/A,,Partly Cloudy,340,2013-09-23 19:54:00
4:54 PM,63.0,39.9,43,29.91,10.0,NW,15.0,21.9,N/A,,Partly Cloudy,310,2013-09-23 20:54:00
5:54 PM,61.0,39.0,44,29.93,10.0,NNW,17.3,23.0,N/A,,Partly Cloudy,330,2013-09-23 21:54:00
6:54 PM,57.9,39.0,49,29.95,10.0,NNW,15.0,23.0,N/A,,Partly Cloudy,340,2013-09-23 22:54:00
7:54 PM,55.9,39.0,53,29.97,10.0,NNW,13.8,24.2,N/A,,Partly Cloudy,340,2013-09-23 23:54:00
8:54 PM,53.1,37.9,57,30.00,10.0,North,12.7,23.0,N/A,,Clear,350,2013-09-24 00:54:00
9:54 PM,52.0,37.0,57,30.00,10.0,NW,12.7,21.9,N/A,,Clear,320,2013-09-24 01:54:00
10:54 PM,51.1,37.0,59,30.00,10.0,WNW,13.8,23.0,N/A,,Clear,300,2013-09-24 02:54:00
11:54 PM,50.0,37.0,61,29.99,10.0,NW,12.7,20.7,N/A,,Clear,310,2013-09-24 03:54:00